Location: Newark
(48.8604°N, 2.3376°E)
Time: 23:44:01
(UTC+00:00)

XW-2C - Pass Details

Date: 13 December 2021
Orbit: 503 x 524 km, 97.5° (Epoch: 19 January)

Event Time Altitude Azimuth Distance (km) Brightness Sun altitude
Rises 16:50:45 0° 165° (SSE) 2,628 ? -8.9°
Reaches altitude 10° 16:52:50 10° 165° (SSE) 1,749 ? -9.2°
Maximum altitude 16:56:36 88° 83° (E) 529 ? -9.8°
Drops below altitude 10° 17:00:27 10° 347° (NNW) 1,774 ? -10.4°
Sets 17:02:34 0° 348° (NNW) 2,670 ? -10.7°
